STARLINK-11270, 60999

Orbit data source: Space-Track

STARLINK-11270, 60999 is a payload satellite owned by SpaceX/Seattle (US) in LEO that was launched on Thu, 05 Sep 2024 UTC via an FALCON 9 launch vehicle from the Air Force Eastern Test Range (AFETR). Payloads include a variety of satellites, spacecraft, and rockets equipped with specific instruments for various scientific and technological missions. These include communications satellites like Starlink; space stations such as the ISS; scientific satellites like the Hubble; Earth observation satellites from companies like Planet Labs, Umbra, and HawkEye 360; GPS; miniature CubeSats for education and research; and military/defense satellites.

Loading next visibility...
STARLINK-11270 details
Identifier
60999, 2024-158K
Orbit
LEO
Last TLE update17 hours ago
Origin
Flag of USSpaceX/Seattle (US)
ManufacturerSpaceX/Seattle
MissionOperational spacecraft
Bus & MotorSTARLINK V2M, Unknown motor
Mass730 kg wet, ~700 kg dry
Launch date (UTC)
2024-09-05 (4 months ago)
Launch vehicle
FALCON 9
Launch site
Air Force Eastern Test Range (AFETR)
Object type
Payload
Rocket body
Debris
Shape & HBRUnknown
Radar Cross SectionLarge (>1 m²)

Expand to show TLE details & history

TLE from 17 hours ago
0 STARLINK-11270
1 60999U 24158K   24355.85072236  .00002339  00000-0  24172-4 0  9992
2 60999  53.1600 309.3031 0001657  84.3334 275.7873 15.69704910 17877
Epoch: 2024-12-20T20:25Z
Definitive object data (Epoch: 2024-12-20T20:25:02.411Z)
Latitude-0.00003°
Longitude-86.86728°
Altitude360.544 km
Speed7.694 km/s
True Right ascension20h 37m 12s
True Declination0° 00' 00"
Sunlit
Object was in daylight at TLE epoch
Visualization TLE readout
Latitude44.41714°
Longitude-43.48923°
Altitude363.267 km
Speed7.698 km/s
Apparent Right ascension00h 01m 05s
Apparent Declination3° 42' 32"
Sunlit
Object is in daylight
Visualization observer readout
Local Sidereal Time12:30:58
Azimuth10.734° NNE
Elevation-45.838°
Doppler factor1
Orbital elements
Apogee altitude361.119 km
Perigee altitude358.885 km
Semi-major axis6,738.139 km
Eccentricity0.0001657
Inclination53.16°
RAAN309.3031°
Arg. of periapsis84.3334°
True anomaly275.76841°
Mean anomaly275.7873°
Eccentric anomaly275.77785°
Mean motion3.92404 °/min
BSTAR0.000024172
Orbital period91.74 mins
Loading maneuver chart data...
Loading historical data...
Loading historical data...
Loading historical data...
Loading historical data...
Loading historical data...
Loading historical data...
Loading historical data...

STARLINK-11270 Visibility forecast

Observer location: undefined°, undefined

Span
Click to sort rows by Start time (UTC) header in descending order
Start Az.
Max El. time (UTC)
Max El. Az.
Max El.
End time (UTC)
End Az.
4 mins2024-12-22 00:07:59.926Z255.474° W2024-12-22 00:09:59.926Z338.155° N35.7°2024-12-22 00:11:59.926Z35.531° NE
4 mins2024-12-22 06:32:59.926Z305.112° NW2024-12-22 06:34:59.926Z149.509° SSE40.123°2024-12-22 06:36:59.926Z135.308° SSE
|